Powrót do katalogu

ATLAS 5 CENTAUR DEB

AktywnyHEO
NORAD 44691·DEBRIS·🇺🇸 United States

Wystrzelony Oct 17, 2018 z Cape Canaveral Space Force Station

Loading…

Następne Przeloty (najbliższe 24 godziny)

TLE

Starzejące sięSource: Space-Track

Epoka: Aug 30, 2026, 18:34 UTC

1 44691U 18079BD  26242.77369456 -.00000122  00000-0  00000-0 0  9998
2 44691  13.2871  50.1227 4444394 279.3567  34.5531  1.76822986 45500

Śledź ATLAS 5 CENTAUR DEB w czasie rzeczywistym z AllMySat

Download on the App Store